| time (UTC) | temp F | wind direction | speed MPH | gust MPH | rain 1hr in | rain 24hr in | rain mn in | humidity % | barometer mb |
| 20260503203107 | 67 | 5 | 5.0 | 19.0 | 0.00 | 0.11 | 0.11 | 42 | 1007.4 |
| 20260503201554 | 67 | 5 | 7.0 | 18.0 | 0.00 | 0.11 | 0.11 | 43 | 1007.5 |
| 20260503200048 | 66 | 5 | 6.0 | 20.0 | 0.00 | 0.11 | 0.11 | 46 | 1007.9 |
| 20260503194557 | 65 | 5 | 7.0 | 18.0 | 0.00 | 0.11 | 0.11 | 46 | 1007.8 |
| 20260503193055 | 63 | 5 | 6.0 | 16.0 | 0.00 | 0.11 | 0.11 | 51 | 1008.1 |
| 20260503191554 | 61 | 5 | 4.0 | 16.0 | 0.00 | 0.11 | 0.11 | 56 | 1008.1 |
| 20260503190056 | 60 | 360 | 6.0 | 16.0 | 0.00 | 0.11 | 0.11 | 62 | 1008.5 |
| 20260503184604 | 58 | 360 | 6.0 | 19.0 | 0.01 | 0.11 | 0.11 | 65 | 1008.9 |
| 20260503183056 | 57 | 360 | 5.0 | 16.0 | 0.01 | 0.11 | 0.11 | 70 | 1009.0 |
| 20260503181604 | 54 | 360 | 3.0 | 12.0 | 0.02 | 0.11 | 0.11 | 79 | 1009.3 |
| 20260503180052 | 51 | 360 | 3.0 | 10.0 | 0.03 | 0.11 | 0.11 | 85 | 1010.0 |
| 20260503174552 | 49 | 360 | 3.0 | 11.0 | 0.03 | 0.10 | 0.10 | 87 | 1010.2 |
| 20260503173059 | 48 | 9 | 3.0 | 10.0 | 0.04 | 0.10 | 0.10 | 87 | 1011.1 |
| 20260503171549 | 48 | 9 | 2.0 | 11.0 | 0.03 | 0.09 | 0.09 | 88 | 1011.6 |
| 20260503081553 | 42 | 5 | 2.0 | 4.0 | 0.00 | 0.00 | 0.00 | 66 | 1014.1 |
| 20260503071600 | 43 | 5 | 1.0 | 5.0 | 0.00 | 0.00 | 0.00 | 64 | 1014.1 |
| 20260503060107 | 42 | 0 | 0.0 | 2.0 | 0.00 | 0.00 | 0.00 | 64 | 1014.8 |
| 20260503054555 | 43 | 0 | 1.0 | 3.0 | 0.00 | 0.00 | 0.00 | 62 | 1014.8 |
| 20260503053053 | 44 | 5 | 1.0 | 3.0 | 0.00 | 0.00 | 0.00 | 61 | 1015.0 |
| 20260503051550 | 44 | 9 | 1.0 | 4.0 | 0.00 | 0.00 | 0.00 | 60 | 1015.1 |
| 20260503050051 | 44 | 5 | 1.0 | 5.0 | 0.00 | 0.00 | 0.00 | 60 | 1015.1 |
| 20260503044558 | 44 | 9 | 1.0 | 4.0 | 0.00 | 0.00 | 0.00 | 61 | 1015.1 |
| 20260503043057 | 44 | 5 | 1.0 | 4.0 | 0.00 | 0.00 | 0.00 | 60 | 1015.1 |
| 20260503041553 | 44 | 5 | 1.0 | 4.0 | 0.00 | 0.00 | 0.00 | 60 | 1015.2 |
| 20260503040057 | 45 | 5 | 1.0 | 3.0 | 0.00 | 0.00 | 0.00 | 60 | 1015.2 |
| 20260503034551 | 45 | 9 | 1.0 | 3.0 | 0.00 | 0.00 | 0.00 | 60 | 1015.2 |
| 20260503033104 | 45 | 5 | 1.0 | 3.0 | 0.00 | 0.00 | 0.00 | 59 | 1015.4 |
| 20260503031555 | 45 | 9 | 1.0 | 3.0 | 0.00 | 0.00 | 0.00 | 59 | 1015.4 |
| 20260503030056 | 45 | 9 | 1.0 | 2.0 | 0.00 | 0.00 | 0.00 | 59 | 1015.5 |
| 20260503024554 | 45 | 9 | 1.0 | 3.0 | 0.00 | 0.00 | 0.00 | 59 | 1015.5 |
| 20260503023100 | 44 | 5 | 0.0 | 1.0 | 0.00 | 0.00 | 0.00 | 62 | 1015.5 |
| 20260503021555 | 45 | 0 | 0.0 | 0.0 | 0.00 | 0.00 | 0.00 | 61 | 1015.4 |
| 20260503020057 | 46 | 0 | 0.0 | 0.0 | 0.00 | 0.00 | 0.00 | 58 | 1015.4 |
| 20260503014549 | 47 | 0 | 0.0 | 2.0 | 0.00 | 0.00 | 0.00 | 54 | 1015.3 |
| 20260503013058 | 47 | 0 | 0.0 | 1.0 | 0.00 | 0.00 | 0.00 | 53 | 1015.3 |
| 20260503011603 | 49 | 0 | 0.0 | 0.0 | 0.00 | 0.00 | 0.00 | 50 | 1015.3 |
| 20260503010054 | 50 | 0 | 1.0 | 4.0 | 0.00 | 0.00 | 0.00 | 46 | 1015.3 |
| 20260503004614 | 51 | 9 | 0.0 | 3.0 | 0.00 | 0.00 | 0.00 | 45 | 1015.2 |
| 20260503003059 | 52 | 0 | 0.0 | 5.0 | 0.00 | 0.00 | 0.00 | 44 | 1015.4 |
| 20260503001552 | 53 | 360 | 1.0 | 5.0 | 0.00 | 0.00 | 0.00 | 43 | 1015.4 |
| 20260503000100 | 53 | 0 | 0.0 | 3.0 | 0.00 | 0.00 | 0.00 | 45 | 1015.4 |
| 20260502234553 | 54 | 0 | 1.0 | 4.0 | 0.00 | 0.00 | 0.00 | 42 | 1015.4 |
| 20260502233051 | 54 | 0 | 0.0 | 4.0 | 0.00 | 0.00 | 0.00 | 42 | 1015.6 |
| 20260502231552 | 55 | 360 | 0.0 | 9.0 | 0.00 | 0.00 | 0.00 | 41 | 1015.7 |
| 20260502230047 | 54 | 360 | 1.0 | 4.0 | 0.00 | 0.00 | 0.00 | 42 | 1015.7 |
| 20260502224550 | 54 | 360 | 1.0 | 5.0 | 0.00 | 0.00 | 0.00 | 41 | 1015.8 |
| 20260502223050 | 55 | 360 | 1.0 | 8.0 | 0.00 | 0.00 | 0.00 | 42 | 1015.7 |
| 20260502221549 | 55 | 360 | 2.0 | 8.0 | 0.00 | 0.00 | 0.00 | 41 | 1015.9 |
| 20260502220053 | 56 | 360 | 2.0 | 5.0 | 0.00 | 0.00 | 0.00 | 40 | 1016.0 |
| 20260502214552 | 58 | 5 | 1.0 | 8.0 | 0.00 | 0.00 | 0.00 | 39 | 1016.0 |
| 20260502213051 | 57 | 9 | 3.0 | 9.0 | 0.00 | 0.00 | 0.00 | 39 | 1016.0 |
| 20260502211554 | 55 | 5 | 1.0 | 4.0 | 0.00 | 0.00 | 0.00 | 41 | 1016.0 |
| 20260502210049 | 54 | 9 | 0.0 | 5.0 | 0.00 | 0.00 | 0.00 | 42 | 1016.1 |
| 20260502204553 | 55 | 5 | 1.0 | 8.0 | 0.00 | 0.00 | 0.00 | 43 | 1016.5 |